Regional Weather Roundup
Issued by NWS

Home | Current Version | Previous Version | Text Only | Print | Product List | Glossary On
Versions: 1 2 3 4 5 6 7 8 9 10 11 12 13 14 15 16 17 18 19 20 21 22 23 24 25 26 27 28 29 30 31 32 33 34 35 36 37 38 39 40 41
329
ASUS44 KJAN 012303
RWRMS

MISSISSIPPI HOURLY WEATHER ROUNDUP
NATIONAL WEATHER SERVICE JACKSON MS
600 PM CDT MON SEP 01 2014

NOTE: "FAIR: INDICATES FEW OR NO CLOUDS BELOW 12,000 FEET WITH NO
SIGNIFICANT WEATHER AND/OR OBSTRUCTIONS TO VISIBILITY.

MSZ001>002-007>008-010>013-018>021-025>028-034>036-020000-
NORTHWEST MISSISSIPPI

CITY           SKY/WX    TMP DP  RH WIND       PRES   REMARKS
CLARKSDALE     FAIR      90  73  58 S8        29.96S HX  98
CLEVELAND      FAIR      91  74  58 S8        29.95F HX 100
GREENWOOD      SUNNY     90  72  55 SE8       29.97F HX  97
GREENVILLE     MOSUNNY   90  75  61 SE5       29.95F HX 100
GRENADA        FAIR      88  70  55 S5        29.98S HX  92
OLIVE BRANCH   MOSUNNY   88  75  66 S13       29.97S HX  97
OXFORD         FAIR      88  68  51 SW7       30.00S HX  91
TUNICA         CLEAR     88  72  58 S14       29.96S HX  94
$$

MSZ003>006-009-014>017-022>024-029>033-037>039-020000-
NORTHEAST MISSISSIPPI

CITY           SKY/WX    TMP DP  RH WIND       PRES   REMARKS
BELMONT        FAIR      87  70  56 S8        30.01S HX  92
COLUMBUS AFB   SUNNY     91  69  48 S6        30.00S HX  95
CORINTH        FAIR      90  68  48 S7        29.98S HX  93
GOLDN TRIANGLE MOSUNNY   91  70  49 S7        30.01S HX  97
STARKVILLE     FAIR      90  70  51 S3        30.00S HX  95
TUPELO         MOSUNNY   91  69  48 SW12      29.99R HX  96
$$

MSZ040-058-020000-
CENTRAL MISSISSIPPI

CITY           SKY/WX    TMP DP  RH WIND       PRES   REMARKS
JACKSON INTL   CLOUDY    78  73  84 CALM      30.01F
JACKSON HAWKNS CLOUDY    79  73  82 S5        30.02F
MERIDIAN KEY   PTSUNNY   89  69  51 S8        30.02R HX  93
MERIDIAN NAS   MOSUNNY   88  73  61 CALM      30.02R HX  95
RAYMOND        FAIR      77  73  88 E3        30.02S
VICKSBURG      CLOUDY    81  72  74 S5        29.98F
$$

MSZ059>079-020000-
SOUTH MISSISSIPPI

CITY           SKY/WX    TMP DP  RH WIND       PRES   REMARKS
BROOKHAVEN     FAIR      79  77  94 E3        30.04F
HATTIESBURG    PTSUNNY   86  75  69 S7        30.03R HX  95
MCCOMB         CLOUDY    77  73  87 CALM      30.02S
NATCHEZ        PTSUNNY   84  77  79 S8        29.99R HX  94
PINE BELT      PTSUNNY  N/A N/A N/A SW5       30.04S
$$

MSZ080>082-020000-
COASTAL MISSISSIPPI

CITY           SKY/WX    TMP DP  RH WIND       PRES   REMARKS
BILOXI         PTSUNNY   86  74  68 SE9       30.02R HX  94
PASCAGOULA     PTSUNNY   85  76  74 S8        30.02S HX  94
GULFPORT       MOSUNNY   87  76  69 S12       30.01S HX  97
$$



USA.gov is the U.S. government's official web portal to all federal, state and local government web resources and services.